Wind_Speed
43 40 38 38 36 35 36 36 34 31 29 32 33 31 30 28 27 21 18 15 15 10 19 18 15 12 15 15 18 22 22 25 28 30 34 34 32 36 46 55 61 50 42
44 44 42 39 38 38 36 35 33 32 30 29 29 33 33 32 29 25 16 16 9 12 15 14 11 13 15 16 19 22 26 25 26 33 35 32 34 39 52 60 57 45 43
45 43 44 42 40 39 36 34 32 32 31 28 30 31 32 31 28 20 15 13 12 13 11 12 11 14 15 16 22 25 27 24 27 29 31 31 37 44 52 62 54 51 44
45 42 42 43 41 38 34 32 30 27 23 28 31 32 27 25 24 13 13 11 15 13 10 10 11 13 15 20 23 26 25 28 28 26 28 31 35 45 50 57 59 51 43
47 44 42 40 39 36 32 29 24 22 20 21 26 27 22 20 16 16 10 12 12 9 7 9 12 13 19 22 25 24 26 29 24 23 27 31 33 44 54 56 51 49 44
48 47 45 44 40 33 27 23 19 19 19 21 23 21 17 19 12 6 8 11 10 8 11 12 13 16 21 22 23 25 27 28 21 22 28 29 32 36 48 53 48 45 44
43 43 43 40 34 28 23 19 17 17 18 18 16 16 14 13 15 12 17 17 13 13 14 10 12 15 21 25 26 28 31 22 17 20 23 25 31 34 41 52 48 42 40
37 38 37 33 27 23 17 15 19 18 17 18 18 18 15 17 13 11 11 14 14 8 6 7 9 18 22 24 25 30 24 19 16 16 19 19 28 33 36 43 46 40 38
30 31 30 28 23 18 18 19 18 18 19 19 20 19 16 14 12 8 8 9 6 1 6 6 11 15 20 23 29 22 19 17 13 12 15 20 27 23 32 42 48 42 42
24 26 25 24 20 20 19 20 21 21 19 16 15 15 16 11 8 9 10 8 8 7 7 10 15 17 20 24 17 18 19 21 15 16 18 22 22 21 30 36 42 36 38
24 23 22 19 20 22 24 22 20 17 13 15 14 16 12 10 10 11 11 9 9 7 8 11 12 16 16 13 14 15 18 22 13 15 19 23 29 26 30 30 40 38 38
20 21 23 23 22 22 22 19 18 16 14 17 17 16 13 12 13 10 8 7 8 6 9 7 9 10 12 13 14 16 20 16 12 16 19 22 33 27 26 25 34 35 39
20 22 19 19 19 18 17 16 15 13 15 19 18 17 16 15 13 9 8 8 7 6 3 6 6 9 9 11 15 17 19 14 14 18 20 22 22 30 22 25 29 34 39
17 21 21 19 17 16 14 13 15 16 18 19 18 17 18 14 12 9 4 4 3 3 5 4 3 5 7 10 10 15 18 13 14 14 15 17 19 28 25 24 31 32 36
20 19 18 16 17 20 19 18 17 17 16 14 15 15 15 11 9 5 4 1 2 5 2 1 1 5 8 8 7 13 15 13 14 13 15 17 20 22 29 26 26 30 32
20 19 19 20 19 18 18 20 19 15 14 14 13 11 11 10 9 8 4 3 4 3 5 2 6 6 6 7 8 10 14 13 16 19 15 18 21 20 21 25 27 28 28
18 19 18 16 17 18 18 16 14 14 9 10 11 11 10 9 9 10 6 5 6 5 2 5 6 6 6 7 8 10 14 14 14 16 19 22 23 20 18 21 24 25 25
16 16 16 13 11 13 14 12 9 10 11 9 10 12 10 9 12 9 8 9 8 4 2 5 6 6 6 6 10 12 14 12 12 15 16 18 20 22 24 18 19 22 26
18 15 15 14 8 10 10 10 10 10 11 9 12 13 13 14 13 14 11 11 11 4 3 6 7 6 6 5 9 8 9 12 8 12 13 15 17 19 19 20 18 18 21
16 15 14 15 10 14 10 12 12 10 11 11 11 13 16 16 16 15 11 8 6 4 4 4 6 6 6 5 5 5 6 8 7 10 14 13 15 17 17 19 16 20 20
9 12 15 15 12 12 13 12 14 13 12 8 7 13 15 15 13 13 9 5 3 1 1 1 3 5 6 4 2 3 5 7 6 8 12 14 14 17 16 16 16 17 19
8 13 15 15 13 14 15 12 13 11 11 7 11 17 19 16 13 13 9 4 4 2 4 2 3 4 5 7 5 5 5 5 5 7 9 12 13 14 15 14 17 17 18
13 8 16 13 12 16 14 14 12 13 14 10 13 20 21 18 13 12 10 6 3 2 4 3 1 4 8 8 7 8 8 8 8 9 10 10 14 12 13 14 14 15 16
11 18 15 15 18 16 16 19 17 17 19 17 16 17 19 18 16 12 11 5 2 1 2 1 2 4 6 7 7 7 8 8 8 8 8 10 12 12 12 13 13 14 14
4 11 13 19 19 17 18 18 17 21 18 18 19 20 21 17 15 14 10 5 3 1 1 3 5 5 5 5 6 7 7 8 8 7 6 8 10 9 12 12 12 13 13
13 15 15 16 18 14 12 14 17 18 18 20 20 19 17 17 18 16 10 5 3 2 2 4 6 6 5 6 7 8 7 6 5 3 3 7 11 10 12 10 11 12 13
Wind_Direction
237 239 238 239 242 241 241 243 244 246 242 241 249 255 262 268 273 275 272 282 303 258 258 282 272 285 304 322 321 326 319 321 320 322 322 326 331 329 331 333 334 324 321
235 237 241 243 243 246 245 244 246 248 247 245 247 254 259 267 273 275 263 294 274 269 270 278 281 291 312 319 324 315 320 325 324 320 323 331 332 331 332 336 333 332 330
229 234 240 243 244 246 248 251 247 248 246 248 248 252 260 272 279 261 257 282 256 250 257 268 270 300 309 317 313 319 325 328 324 322 325 336 331 338 338 338 336 341 337
229 232 237 243 246 248 252 253 254 254 249 243 251 258 267 280 287 259 277 260 248 252 255 262 282 311 306 310 319 329 330 328 329 326 332 330 337 350 345 343 340 341 335
226 229 235 240 243 247 249 252 255 259 256 249 248 256 270 274 290 271 271 249 255 284 257 276 301 295 302 318 325 335 333 334 328 326 328 326 338 347 346 349 343 338 338
227 229 232 233 236 239 243 250 253 250 248 243 246 252 260 274 269 273 272 243 250 268 274 300 294 301 320 323 326 332 330 331 327 328 326 330 338 338 340 352 349 347 339
228 228 229 229 227 228 233 238 240 232 234 238 242 246 253 246 247 231 233 231 254 266 275 284 296 315 320 320 325 326 327 327 326 328 327 334 345 346 343 355 353 352 349
221 221 221 219 214 216 224 216 216 219 230 242 239 235 238 239 236 230 221 244 259 259 276 304 316 323 318 313 320 323 330 332 339 336 337 341 352 352 346 353 355 353 358
214 212 209 206 205 209 197 207 209 217 216 227 228 231 223 228 236 257 256 255 246 308 298 304 312 313 313 318 322 328 337 350 359 0 347 352 347 350 355 358 3 1 358
201 198 198 200 204 195 196 204 211 219 226 206 217 228 221 223 243 257 257 247 225 234 262 294 302 309 316 322 333 346 352 360 6 1 355 1 11 7 9 10 9 15 7
199 197 194 199 194 196 195 200 212 200 196 208 205 208 214 224 229 228 238 235 241 256 286 305 312 324 333 352 356 352 350 348 355 7 13 23 26 21 20 14 13 24 26
190 186 191 192 200 185 188 196 191 180 186 201 190 204 213 221 226 244 240 238 257 286 305 325 337 356 8 8 351 346 343 347 356 11 19 22 25 20 23 20 17 28 38
189 190 192 183 175 174 173 177 189 186 192 192 196 205 207 220 235 245 238 248 276 301 328 343 4 14 7 0 346 344 349 4 12 24 30 26 25 29 27 30 30 35 40
184 167 167 160 157 161 166 187 201 196 194 199 203 210 216 227 242 222 232 238 296 9 343 29 30 16 346 340 347 341 360 13 20 27 34 34 34 37 37 31 37 32 34
160 156 157 159 166 172 183 189 191 201 202 205 216 227 242 237 237 225 186 23 347 344 112 180 309 316 329 348 342 335 352 1 18 25 34 35 34 42 45 39 39 41 41
163 169 172 177 178 189 194 191 194 203 211 218 230 239 240 239 240 216 215 325 304 179 174 282 310 329 339 339 338 338 357 8 24 37 43 39 37 37 41 47 49 43 47
162 159 168 180 194 198 201 208 214 208 226 251 238 220 216 211 193 192 202 205 169 174 276 307 327 338 338 338 353 14 28 44 53 56 56 53 41 31 36 43 48 50 54
165 168 184 195 198 207 211 204 207 238 243 210 182 184 166 169 172 178 164 146 141 148 320 347 351 0 354 15 45 34 22 24 44 50 54 48 44 36 37 44 48 55 54
177 185 194 193 198 216 204 198 210 207 198 204 190 177 169 163 159 152 143 151 157 174 307 342 0 359 16 50 67 44 7 8 49 52 61 54 49 46 38 43 55 61 63
164 158 152 160 154 163 173 173 188 183 183 181 189 186 168 159 155 150 154 173 212 242 294 355 23 22 22 60 86 55 343 1 61 64 58 66 54 49 44 46 63 68 66
159 159 160 154 162 166 177 183 195 199 197 188 200 180 161 151 147 156 181 217 224 3 228 159 326 336 323 17 190 320 331 5 76 86 69 75 59 54 52 47 67 77 73
158 184 193 171 176 192 192 204 182 192 179 176 131 155 146 142 161 189 197 220 299 308 149 192 2 3 8 23 23 15 14 19 62 92 77 85 74 61 48 56 71 77 76
195 176 163 178 198 198 194 194 173 185 186 186 147 155 156 153 169 201 227 241 313 105 151 175 290 332 23 38 33 35 37 49 75 89 74 95 77 71 53 55 61 71 74
173 199 190 186 172 188 191 191 194 184 193 191 185 169 166 174 188 204 203 224 308 22 123 237 326 4 27 28 33 37 46 65 82 87 77 96 86 74 73 57 67 68 78
172 185 159 166 171 160 171 183 190 187 194 196 193 180 184 191 192 196 201 213 268 255 343 59 74 55 34 35 46 54 65 78 90 99 86 95 104 95 82 69 65 77 72
139 136 156 162 158 160 170 169 188 195 193 188 192 191 192 191 185 184 195 226 207 212 305 354 43 62 54 57 56 56 66 85 98 96 94 103 131 113 94 89 84 82 84
Height
1503 1508 1512 1515 1519 1523 1526 1528 1531 1534 1537 1538 1538 1538 1537 1539 1539 1538 1538 1538 1538 1536 1543 1539 1539 1537 1538 1534 1533 1531 1528 1524 1517 1511 1509 1503 1497 1491 1486 1477 1467 1455 1446
1494 1500 1504 1509 1513 1515 1518 1522 1525 1528 1531 1533 1534 1532 1534 1534 1536 1535 1535 1536 1536 1533 1537 1538 1538 1538 1535 1531 1529 1527 1524 1519 1513 1506 1503 1498 1493 1486 1477 1466 1455 1444 1435
1486 1492 1497 1500 1504 1508 1512 1515 1519 1523 1526 1528 1529 1530 1531 1532 1534 1531 1533 1533 1532 1534 1534 1535 1535 1534 1530 1528 1526 1524 1520 1515 1511 1504 1497 1495 1488 1480 1467 1457 1443 1431 1423
1479 1483 1487 1491 1496 1501 1506 1509 1514 1519 1523 1525 1525 1527 1530 1530 1530 1530 1532 1533 1534 1534 1533 1532 1532 1530 1529 1526 1521 1519 1515 1509 1504 1499 1494 1490 1483 1474 1465 1448 1429 1424 1414
1473 1476 1478 1484 1490 1496 1501 1506 1512 1516 1520 1522 1522 1523 1525 1528 1527 1530 1527 1529 1532 1535 1533 1530 1531 1529 1527 1524 1520 1516 1511 1504 1499 1494 1491 1487 1479 1469 1458 1444 1433 1418 1409
1467 1470 1474 1480 1485 1493 1499 1504 1508 1511 1514 1517 1518 1520 1523 1524 1523 1522 1530 1528 1528 1531 1532 1531 1531 1527 1525 1521 1518 1512 1509 1504 1498 1492 1488 1484 1477 1469 1459 1444 1432 1420 1407
1462 1466 1470 1477 1484 1491 1496 1500 1504 1506 1509 1512 1515 1518 1520 1516 1520 1518 1517 1524 1525 1524 1526 1524 1524 1524 1521 1519 1514 1510 1506 1500 1498 1492 1486 1482 1475 1467 1457 1444 1431 1422 1411
1459 1463 1468 1474 1481 1488 1492 1496 1500 1504 1508 1512 1512 1511 1511 1514 1511 1519 1518 1522 1524 1520 1520 1521 1519 1518 1517 1515 1511 1507 1502 1499 1495 1490 1486 1481 1475 1467 1459 1448 1434 1422 1411
1459 1462 1466 1472 1478 1483 1488 1492 1497 1500 1500 1506 1507 1508 1509 1509 1511 1514 1517 1519 1522 1519 1518 1517 1515 1514 1513 1511 1508 1505 1501 1496 1492 1489 1484 1480 1473 1467 1458 1447 1431 1419 1407
1458 1461 1465 1470 1475 1479 1485 1489 1491 1496 1502 1499 1507 1508 1509 1507 1512 1515 1518 1515 1517 1515 1515 1514 1514 1513 1510 1508 1504 1502 1498 1494 1490 1486 1482 1478 1472 1466 1458 1450 1439 1426 1414
1455 1460 1464 1469 1472 1477 1480 1484 1490 1492 1496 1504 1502 1508 1509 1509 1508 1508 1510 1513 1515 1516 1512 1511 1511 1510 1507 1506 1503 1501 1498 1494 1489 1484 1481 1476 1469 1464 1458 1453 1444 1431 1420
1456 1460 1464 1468 1470 1474 1479 1484 1487 1488 1494 1502 1502 1506 1507 1509 1508 1508 1512 1512 1514 1513 1512 1510 1509 1509 1506 1505 1502 1501 1498 1493 1489 1484 1479 1474 1470 1464 1460 1456 1450 1439 1428
1457 1459 1464 1466 1469 1474 1480 1484 1489 1490 1492 1497 1499 1500 1501 1503 1508 1510 1510 1511 1512 1511 1511 1510 1508 1507 1506 1504 1501 1500 1497 1491 1488 1483 1479 1476 1472 1467 1464 1458 1452 1445 1435
1457 1461 1464 1468 1472 1477 1481 1484 1486 1489 1492 1495 1497 1499 1500 1495 1505 1508 1508 1509 1510 1510 1510 1508 1507 1506 1505 1503 1501 1499 1496 1492 1488 1484 1480 1477 1474 1468 1465 1461 1455 1449 1442
1459 1463 1467 1471 1474 1476 1479 1483 1485 1489 1492 1495 1498 1500 1502 1501 1504 1506 1507 1508 1509 1508 1507 1507 1507 1506 1504 1502 1501 1499 1496 1492 1488 1484 1482 1479 1475 1471 1468 1465 1460 1455 1449
1460 1465 1469 1471 1475 1478 1480 1483 1487 1490 1492 1495 1497 1499 1500 1500 1503 1504 1506 1507 1508 1507 1507 1506 1506 1504 1503 1502 1501 1498 1496 1493 1490 1486 1483 1481 1478 1475 1472 1468 1464 1461 1456
1462 1465 1469 1473 1476 1478 1481 1483 1486 1488 1491 1493 1495 1496 1497 1499 1501 1503 1505 1507 1507 1507 1506 1506 1505 1503 1502 1502 1500 1498 1496 1494 1492 1488 1485 1483 1481 1479 1476 1472 1470 1466 1462
1463 1467 1469 1471 1474 1478 1480 1482 1484 1487 1489 1489 1493 1495 1496 1498 1501 1504 1506 1506 1506 1506 1507 1506 1504 1503 1502 1502 1501 1499 1497 1495 1493 1490 1487 1485 1484 1482 1479 1477 1474 1470 1467
1464 1467 1469 1472 1474 1477 1479 1481 1483 1484 1487 1489 1491 1493 1495 1498 1501 1504 1505 1505 1505 1505 1505 1504 1504 1503 1502 1502 1501 1499 1498 1496 1494 1492 1489 1488 1487 1485 1483 1479 1478 1475 1473
1464 1467 1469 1471 1474 1476 1478 1480 1483 1485 1486 1488 1489 1492 1495 1498 1501 1503 1505 1506 1506 1506 1505 1504 1504 1503 1502 1502 1501 1499 1498 1496 1495 1493 1491 1490 1489 1487 1485 1482 1481 1479 1477
1463 1466 1467 1469 1471 1474 1477 1479 1481 1482 1484 1486 1487 1492 1496 1498 1501 1503 1505 1505 1505 1505 1504 1504 1504 1504 1502 1502 1501 1499 1498 1496 1495 1494 1492 1491 1491 1489 1488 1486 1485 1484 1482
1463 1465 1467 1469 1470 1475 1476 1479 1482 1483 1484 1486 1488 1492 1496 1499 1501 1503 1504 1504 1504 1504 1504 1504 1504 1503 1502 1501 1500 1499 1498 1497 1496 1495 1494 1493 1492 1492 1490 1489 1487 1486 1485
1460 1463 1465 1467 1469 1473 1476 1477 1479 1481 1483 1485 1489 1492 1496 1499 1501 1502 1503 1504 1504 1504 1504 1504 1503 1502 1502 1502 1500 1499 1498 1497 1496 1495 1495 1494 1493 1493 1492 1491 1490 1489 1488
1458 1460 1462 1463 1466 1470 1472 1475 1478 1480 1483 1484 1487 1491 1496 1499 1501 1502 1503 1504 1504 1504 1505 1504 1504 1503 1503 1502 1501 1500 1499 1497 1497 1496 1496 1495 1495 1495 1495 1494 1493 1492 1491
1456 1458 1460 1462 1464 1467 1470 1473 1476 1478 1480 1483 1487 1491 1494 1497 1499 1501 1502 1504 1504 1505 1504 1504 1504 1504 1503 1503 1503 1501 1500 1498 1498 1498 1497 1497 1497 1497 1496 1496 1495 1494 1493
1458 1458 1460 1463 1464 1466 1469 1470 1474 1477 1479 1481 1484 1488 1491 1496 1498 1500 1503 1504 1504 1504 1504 1504 1505 1505 1504 1504 1503 1501 1500 1500 1499 1499 1498 1498 1498 1498 1498 1498 1497 1497 1496